[[{"header":{"parameterUnit":"m.s-1","parameterCategory":1,"la1":30.2991,"la2":30.254,"lo1":-89.0895,"lo2":-89.0444,"dy":0.0017,"dx":0.0017,"nx":28,"ny":28,"refTime":"2026-02-13T09:00:00:Z","depth":0,"parameterNumber":2,"parameterNumberName":"U-component_of_WINDS"},"data":[0,0,0,0,0,0,0,0,0,0,0,0,0,0,0,0,0,0,0,0,0,0,0,0,0,0,0,0,0,0,0,0,0,0,0,0,0,0,0,0,0,0,0,0,0,0,0,0,0,0,0,0,0,0,0,0,0,0,1.4445,1.4445,0,1.4501,1.4501,1.4502,1.4457,1.4455,1.4453,1.4452,1.4511,1.4514,1.4517,0,0,0,0,0,0,0,0,0,0,0,0,0,1.4301,1.4304,1.4445,1.4445,1.4446,1.4501,1.4501,1.4502,1.4458,1.4455,1.4453,1.4451,1.4509,1.4513,1.4517,0,0,0,0,0,0,0,0,0,0,0,0,0,1.4361,1.4305,1.4445,1.443,1.443,1.45,1.4501,1.4502,1.4458,1.4455,1.4452,1.445,1.4508,1.4513,1.4518,1.4606,0,0,1.4533,1.4536,0,0,0,0,0,0,0,0,1.4358,1.4366,1.4432,1.4432,1.4431,1.4469,1.4472,1.4537,1.4459,1.4447,1.4452,1.4448,1.4499,1.4505,1.4522,1.4609,1.4612,1.4534,1.4537,1.4539,1.454,0,0,0,0,0,0,0,1.4353,1.4364,1.4467,1.4433,1.4432,1.4422,1.4427,1.4484,1.4489,1.4448,1.4445,1.4452,1.4498,1.4517,1.4523,1.4612,1.4534,1.4538,1.4541,1.4543,1.4775,1.4778,0,0,0,0,0,0,1.435,1.436,1.4465,1.4469,1.4386,1.4427,1.4433,1.446,1.4488,1.4489,1.4455,1.445,1.451,1.4517,1.4525,1.463,1.4539,1.4544,1.4547,1.4772,1.4776,1.4779,0,0,0,0,0,0,1.4348,1.436,1.4463,1.4414,1.4426,1.4432,1.4463,1.4462,1.4481,1.4493,1.4493,1.4473,1.4508,1.4517,1.4586,1.4631,1.4546,1.4551,1.4768,1.4773,1.4778,1.4841,0,0,0,0,0,0,1.4344,1.4359,1.4393,1.4415,1.4429,1.4523,1.4466,1.4465,1.4489,1.4484,1.451,1.4511,1.4506,1.4579,1.4591,1.4636,1.4554,1.4764,1.4771,1.4776,1.4835,1.4847,1.4858,0,0,0,0,0,1.4339,1.4409,1.4395,1.4407,1.447,1.4526,1.4534,1.4526,1.4493,1.4527,1.4535,1.4511,1.4624,1.4586,1.46,1.4647,1.4762,1.4769,1.4776,1.483,1.4845,1.4857,0,0,0,0,0,0,1.4392,1.4411,1.4396,1.4475,1.4499,1.4518,1.4561,1.4542,1.4577,1.457,1.456,1.4566,1.4638,1.465,1.4607,1.4734,1.4688,1.4698,1.4724,1.4739,1.475,1.4746,1.4559,0,0,0,0,0,1.4413,1.4456,1.4471,1.4539,1.4552,1.4554,1.4578,1.457,1.4595,1.4605,1.4618,1.4643,1.4685,1.4712,1.4751,1.4836,1.4841,1.4876,1.4887,1.4896,1.4905,1.4951,1.4967,1.4803,1.4803,1.4802,0,0,1.4457,1.4473,1.4501,1.455,1.4568,1.4613,1.4563,1.4613,1.4647,1.4613,1.4678,1.4689,1.4716,1.4794,1.4829,1.4806,1.4952,1.4905,1.4913,1.4917,1.496,1.4976,1.4989,1.4807,1.4807,1.4806,0,0,1.456,1.4576,1.4635,1.4654,1.4681,1.4682,1.4696,1.4718,1.4724,1.4789,1.4764,1.4805,1.4876,1.4897,1.4917,1.5028,1.5007,1.5041,1.5101,1.5146,1.5159,1.517,1.521,1.5224,1.505,1.505,1.505,0,1.4611,1.4678,1.4668,1.472,1.4742,1.4713,1.4773,1.4791,1.483,1.4847,1.4821,1.491,1.4926,1.5008,1.5035,1.5052,1.5068,1.5038,1.5158,1.5169,1.518,1.5217,1.5232,1.5054,1.5053,1.5053,1.5053,0,1.474,1.4786,1.4831,1.4868,1.4896,1.4952,1.495,1.498,1.4969,1.4973,1.5041,1.5059,1.5101,1.512,1.5111,1.5201,1.5186,1.5159,1.5112,1.5199,1.5234,1.5249,1.5059,1.5058,1.5057,1.5056,0,0,1.4878,1.4909,1.4926,1.4942,1.497,1.5007,1.5061,1.5102,1.5127,1.5155,1.5201,1.5262,1.5237,1.526,1.5252,1.5292,1.5379,1.526,1.526,1.5281,1.5479,1.5499,1.5516,1.5365,1.5368,1.537,1.5477,0,1.4982,1.5076,1.5069,1.5158,1.5201,1.5174,1.5221,1.5244,1.5249,1.5287,1.5293,1.5337,1.5301,1.5314,1.5352,1.536,1.5418,1.5352,1.5408,1.541,1.5402,1.5535,1.5556,1.5656,1.5491,1.5493,1.5495,0,1.5116,1.5148,1.5242,1.5263,1.5281,1.5324,1.536,1.5397,1.5422,1.5423,1.5449,1.5435,1.549,1.5442,1.5518,1.5473,1.5496,1.5503,1.5507,1.5512,1.5458,1.5543,1.5688,1.5703,1.5516,1.5515,1.5513,0,1.5208,1.5274,1.5339,1.5354,1.5381,1.5411,1.5424,1.5446,1.5471,1.5504,1.552,1.5558,1.558,1.561,1.5607,1.5572,1.5685,1.5636,1.5687,1.5688,1.5712,1.5711,1.5863,1.5727,1.5727,1.5726,1.5726,0,1.5325,1.5383,1.538,1.542,1.5484,1.5475,1.554,1.5549,1.5569,1.561,1.559,1.5629,1.5622,1.5662,1.566,1.5724,1.5733,1.5736,1.5735,1.5738,1.5738,1.5752,1.5745,1.573,1.5729,1.5729,1.5728,0,1.5438,1.5438,1.5507,1.5526,1.5533,1.5579,1.5596,1.5634,1.5638,1.569,1.5702,1.5708,1.5753,1.5753,1.5805,1.5804,1.5882,1.5873,1.5873,1.5871,1.5923,1.5918,1.6089,1.6111,1.5961,1.5963,1.5964,0,1.5513,1.5557,1.5581,1.5607,1.5621,1.5664,1.5689,1.5682,1.5709,1.5741,1.5775,1.5818,1.5853,1.5927,1.5936,1.5976,1.5967,1.6025,1.5973,1.5975,1.5968,1.5966,1.597,1.6035,1.6036,1.6038,1.6039,0,1.5645,1.5643,1.568,1.5717,1.5748,1.5777,1.5804,1.5826,1.5822,1.5854,1.59,1.5926,1.5979,1.6023,1.6061,1.6075,1.6057,1.6055,1.6069,1.6073,1.6071,1.6073,1.5901,1.6051,1.605,1.6049,1.6048,1.6048,1.5741,1.5779,1.5802,1.5844,1.5863,1.5889,1.5925,1.5933,1.5971,1.6013,1.6007,1.6059,1.6083,1.6132,1.6149,1.619,1.617,1.619,1.6195,1.62,1.6206,1.6065,1.6197,1.6196,1.6196,1.6196,1.6195,0,1.5873,1.5886,1.5925,1.5963,1.5996,1.5975,1.6004,1.6033,1.6078,1.6102,1.6136,1.6189,1.6231,1.6244,1.6285,1.6315,1.6307,1.6326,1.6323,1.6327,1.6221,1.6205,1.6331,1.6331,1.6331,1.6331,1.6331,1.6331,1.5945,1.6008,1.6009,1.6082,1.6095,1.6144,1.6163,1.6186,1.6205,1.6265,1.63,1.6307,1.6327,1.6369,1.6407,1.6409,1.6425,1.6447,1.6446,1.6348,1.6334,1.6321,1.6306,1.6451,1.6451,1.6548,1.6549,1.655]},{"header":{"parameterUnit":"m.s-1","parameterCategory":1,"la1":30.2991,"la2":30.254,"lo1":-89.0895,"lo2":-89.0444,"dy":0.0017,"dx":0.0017,"nx":28,"ny":28,"refTime":"2026-02-13T09:00:00:Z","depth":0,"parameterNumber":3,"parameterNumberName":"V-component_of_WINDS"},"data":[0,0,0,0,0,0,0,0,0,0,0,0,0,0,0,0,0,0,0,0,0,0,0,0,0,0,0,0,0,0,0,0,0,0,0,0,0,0,0,0,0,0,0,0,0,0,0,0,0,0,0,0,0,0,0,0,0,0,0.4819,0.4818,0,0.4734,0.4733,0.4732,0.4667,0.4666,0.4666,0.4665,0.4575,0.4573,0.4571,0,0,0,0,0,0,0,0,0,0,0,0,0,0.4922,0.4921,0.4819,0.4818,0.4817,0.4734,0.4733,0.4732,0.4667,0.4666,0.4666,0.4665,0.4575,0.4573,0.4571,0,0,0,0,0,0,0,0,0,0,0,0,0,0.4861,0.492,0.4819,0.4775,0.477,0.4734,0.4733,0.4732,0.4667,0.4666,0.4666,0.4665,0.4576,0.4573,0.4571,0.4571,0,0,0.4562,0.4561,0,0,0,0,0,0,0,0,0.4865,0.4857,0.4782,0.4778,0.4772,0.471,0.4736,0.4678,0.4668,0.4706,0.4665,0.4664,0.462,0.4614,0.46,0.4567,0.4563,0.4562,0.456,0.4559,0.4558,0,0,0,0,0,0,0,0.4869,0.4861,0.4785,0.4781,0.4775,0.4758,0.4748,0.4725,0.4669,0.4703,0.4698,0.4689,0.4617,0.4603,0.4597,0.4562,0.4562,0.4559,0.4558,0.4557,0.4525,0.4525,0,0,0,0,0,0,0.4881,0.4865,0.4788,0.4783,0.4817,0.4757,0.4746,0.4731,0.4669,0.4659,0.469,0.4686,0.4608,0.46,0.4594,0.459,0.4559,0.4556,0.4555,0.4524,0.4525,0.4526,0,0,0,0,0,0,0.4883,0.4874,0.4791,0.4822,0.4811,0.4756,0.474,0.473,0.4715,0.466,0.4649,0.4685,0.4607,0.4598,0.4577,0.4586,0.4555,0.4553,0.4523,0.4524,0.4525,0.4584,0,0,0,0,0,0,0.4886,0.4876,0.4876,0.4823,0.4809,0.4778,0.474,0.4729,0.4711,0.4705,0.4652,0.4643,0.4605,0.4582,0.4575,0.4582,0.455,0.4522,0.4523,0.4525,0.4581,0.4587,0.4593,0,0,0,0,0,0.489,0.4896,0.4877,0.4868,0.4809,0.4779,0.4771,0.4729,0.4712,0.4712,0.4676,0.4644,0.4587,0.4581,0.4572,0.4578,0.4521,0.4523,0.4525,0.4579,0.4586,0.4592,0,0,0,0,0,0,0.4951,0.4888,0.4866,0.4855,0.4823,0.4768,0.4766,0.4738,0.4709,0.4705,0.4653,0.4642,0.4627,0.46,0.4595,0.4575,0.455,0.455,0.4594,0.46,0.4606,0.4613,0.4548,0,0,0,0,0,0.4963,0.4945,0.489,0.4885,0.487,0.4821,0.4807,0.4777,0.4741,0.4727,0.469,0.4655,0.4629,0.4613,0.4586,0.4577,0.4564,0.4577,0.4582,0.4587,0.4588,0.4581,0.4586,0.4532,0.4532,0.4532,0,0,0.4987,0.4951,0.4942,0.4897,0.4868,0.485,0.481,0.4792,0.4778,0.4724,0.4703,0.4674,0.4632,0.4618,0.4609,0.4595,0.46,0.459,0.4594,0.4592,0.4583,0.4589,0.4593,0.4533,0.4533,0.4533,0,0,0.5023,0.4994,0.4986,0.4959,0.4917,0.4884,0.4883,0.4832,0.4811,0.479,0.4749,0.473,0.4686,0.4658,0.4638,0.4662,0.4632,0.4654,0.4684,0.4677,0.4682,0.4685,0.4694,0.4698,0.4655,0.4655,0.4655,0,0.5059,0.503,0.4986,0.4971,0.4951,0.4903,0.4894,0.4869,0.482,0.4808,0.4792,0.4736,0.4704,0.4683,0.4689,0.4674,0.467,0.466,0.4685,0.4688,0.4691,0.4698,0.4702,0.4658,0.4658,0.4658,0.4657,0,0.5076,0.5057,0.5056,0.5011,0.4991,0.498,0.4933,0.4918,0.489,0.4858,0.4836,0.4796,0.476,0.4752,0.4724,0.4726,0.4719,0.4695,0.4668,0.47,0.4706,0.4709,0.4663,0.4662,0.4661,0.466,0,0,0.5148,0.5079,0.5079,0.5058,0.5008,0.4992,0.4977,0.4943,0.4931,0.4898,0.4885,0.4849,0.4826,0.4803,0.4771,0.4766,0.4787,0.4742,0.474,0.4752,0.4787,0.4806,0.481,0.4767,0.4767,0.4768,0.4791,0,0.5176,0.5149,0.5109,0.5094,0.5076,0.5029,0.5016,0.4983,0.4953,0.4931,0.4897,0.4873,0.4845,0.4831,0.4823,0.4787,0.4794,0.4784,0.4753,0.4752,0.4766,0.4813,0.4833,0.4857,0.4793,0.4793,0.4793,0,0.5205,0.5177,0.5161,0.5113,0.5103,0.5093,0.5058,0.5038,0.4999,0.4978,0.4952,0.4918,0.4899,0.4874,0.4847,0.4841,0.4825,0.4805,0.4805,0.4801,0.4775,0.4811,0.4864,0.4868,0.4797,0.4797,0.4796,0,0.526,0.5217,0.5202,0.5186,0.5128,0.5122,0.5097,0.5058,0.504,0.5009,0.4996,0.4963,0.4945,0.4919,0.4876,0.4862,0.4853,0.4825,0.4834,0.4835,0.4835,0.4836,0.4887,0.4824,0.4824,0.4824,0.4824,0,0.5296,0.5288,0.5226,0.5217,0.5207,0.516,0.515,0.5121,0.5086,0.507,0.5026,0.5011,0.4955,0.4933,0.4899,0.4881,0.4873,0.4854,0.4846,0.4859,0.4861,0.4848,0.4846,0.4825,0.4825,0.4825,0.4824,0,0.5356,0.5314,0.5295,0.5242,0.5229,0.5223,0.5177,0.5166,0.5133,0.5113,0.5105,0.5053,0.5025,0.498,0.4938,0.4915,0.4903,0.4888,0.4917,0.4912,0.4924,0.4923,0.4968,0.4972,0.4907,0.4908,0.4909,0,0.5382,0.5375,0.5322,0.5309,0.5286,0.5265,0.5246,0.5199,0.5181,0.5136,0.513,0.5099,0.5072,0.5029,0.4987,0.4954,0.4938,0.4956,0.4933,0.4946,0.4939,0.494,0.4939,0.4962,0.4963,0.4963,0.4964,0,0.5433,0.5413,0.5389,0.5357,0.5337,0.531,0.528,0.5271,0.5216,0.5199,0.517,0.5149,0.5107,0.5076,0.5038,0.5011,0.4978,0.4972,0.4972,0.4986,0.5003,0.4994,0.4932,0.4971,0.497,0.497,0.4969,0.4969,0.5477,0.5469,0.543,0.5405,0.5377,0.5351,0.5338,0.5304,0.528,0.5243,0.5215,0.5189,0.5149,0.5094,0.5069,0.5046,0.5032,0.5032,0.5033,0.5034,0.5039,0.5006,0.5039,0.5039,0.5038,0.5038,0.5038,0,0.5526,0.5499,0.5476,0.5436,0.5416,0.5388,0.5354,0.5338,0.5316,0.5282,0.5256,0.5223,0.5193,0.5149,0.5115,0.5105,0.5089,0.5098,0.5098,0.5093,0.5054,0.5057,0.5111,0.5111,0.5111,0.5111,0.5111,0.5111,0.5549,0.5534,0.5509,0.5479,0.5452,0.5427,0.5409,0.5384,0.5357,0.5323,0.5298,0.5269,0.5231,0.5194,0.5164,0.5152,0.5141,0.5155,0.5138,0.5102,0.5095,0.5089,0.5092,0.5153,0.5153,0.5179,0.5179,0.5179]}]]